Weather History for Chignik, AK

Change the Weather History Date:

Sunday, December 23, 2012

  Actual Average Record
Temperature  
Mean Temperature 14 °F -  
Max Temperature 19 °F 31 °F 44 °F (2008)
Min Temperature 12 °F 25 °F 12 °F (2012)
Degree Days  
Heating Degree Days 50    
Moisture  
Dew Point 6 °F    
Average Humidity 67    
Maximum Humidity 73    
Minimum Humidity 62    
Precipitation  
Precipitation 0.00 in - - ()
Sea Level Pressure  
Sea Level Pressure 29.43 in    
Wind  
Wind Speed 14 mph (WSW)    
Max Wind Speed 22 mph    
Max Gust Speed 30 mph    
Visibility 10 miles    
Events      
Averages and records for this station are not official NWS values.
T = Trace of Precipitation, MM = Missing Value Source: NWS Daily Summary

Daily Weather History Graph

Daily Weather History Graph

Search for Another Location

Airport:

Trip Planner

Search our weather history database for the weather conditions in past years. The results will help you decide how hot, cold, wet, or windy it might be!

Date:

Astronomy

Dec. 23, 2012 Rise Set
Actual Time 10:06 AM AKST 4:59 PM AKST
Civil Twilight 9:18 AM AKST 5:47 PM AKST
Nautical Twilight 8:28 AM AKST 6:37 PM AKST
Astronomical Twilight 7:42 AM AKST 7:23 PM AKST
Moon 2:19 PM AKST (12/23) 5:34 AM AKST (12/23)
Length of Visible Light 8h 29m
Length of Day
6h 53m
Waxing Gibbous, 82% of the Moon is Illuminated
Dec 23
Waxing Gibbous
Dec 28
Full
Jan 4
Last Quarter
Jan 11
New
Jan 18
First Quarter

Hourly Weather History & Observations

Time (AKST) Temp. Windchill Dew Point Humidity Pressure Visibility Wind Dir Wind Speed Gust Speed Precip Events Conditions
12:16 AM 12.2 °F -1.8 °F 1.4 °F 62% 29.55 in 10.0 mi WSW 11.5 mph 18.4 mph N/A   Overcast
12:36 AM 12.2 °F -2.5 °F 1.4 °F 62% 29.55 in 10.0 mi West 12.7 mph 18.4 mph N/A   Overcast
12:56 AM 12.2 °F -1.8 °F 3.2 °F 67% 29.55 in 10.0 mi West 11.5 mph - N/A   Overcast
1:16 AM 12.2 °F -2.5 °F 3.2 °F 67% 29.55 in 10.0 mi WSW 12.7 mph 20.7 mph N/A   Overcast
1:36 AM 12.2 °F -3.7 °F 3.2 °F 67% 29.54 in 10.0 mi WSW 15.0 mph 23.0 mph N/A   Overcast
1:56 AM 12.2 °F -3.1 °F 3.2 °F 67% 29.55 in 10.0 mi West 13.8 mph 19.6 mph N/A   Mostly Cloudy
2:16 AM 12.2 °F -3.7 °F 3.2 °F 67% 29.54 in 10.0 mi WSW 15.0 mph 23.0 mph N/A   Overcast
2:36 AM 12.2 °F -5.3 °F 3.2 °F 67% 29.54 in 10.0 mi WSW 18.4 mph 24.2 mph N/A   Overcast
2:56 AM 12.2 °F -5.3 °F 5.0 °F 73% 29.54 in 10.0 mi WSW 18.4 mph 23.0 mph N/A   Overcast
3:16 AM 12.2 °F -3.7 °F 3.2 °F 67% 29.54 in 10.0 mi WSW 15.0 mph - N/A   Overcast
3:36 AM 12.2 °F -3.1 °F 3.2 °F 67% 29.55 in 10.0 mi WSW 13.8 mph - N/A   Overcast
3:56 AM 12.2 °F -2.5 °F 3.2 °F 67% 29.54 in 10.0 mi WSW 12.7 mph 24.2 mph N/A   Overcast
4:16 AM 14.0 °F 0.5 °F 3.2 °F 62% 29.53 in 10.0 mi WSW 11.5 mph 20.7 mph N/A   Overcast
4:36 AM 14.0 °F -2.5 °F 3.2 °F 62% 29.51 in 10.0 mi WSW 17.3 mph - N/A   Overcast
4:56 AM 14.0 °F -3.9 °F 5.0 °F 67% 29.51 in 10.0 mi WSW 20.7 mph - N/A   Overcast
5:16 AM 14.0 °F -4.3 °F 5.0 °F 67% 29.50 in 10.0 mi WSW 21.9 mph 25.3 mph N/A   Overcast
5:36 AM 14.0 °F -3.4 °F 5.0 °F 67% 29.51 in 10.0 mi WSW 19.6 mph 29.9 mph N/A   Scattered Clouds
5:56 AM 12.2 °F -1.0 °F 1.4 °F 62% 29.51 in 10.0 mi West 10.4 mph - N/A   Mostly Cloudy
6:16 AM 12.2 °F -1.8 °F 3.2 °F 67% 29.50 in 10.0 mi West 11.5 mph - N/A   Overcast
6:36 AM 12.2 °F -4.3 °F 3.2 °F 67% 29.50 in 10.0 mi WSW 16.1 mph 19.6 mph N/A   Mostly Cloudy
6:56 AM 12.2 °F -2.5 °F 3.2 °F 67% 29.50 in 10.0 mi West 12.7 mph - N/A   Scattered Clouds
7:16 AM 12.2 °F -2.5 °F 3.2 °F 67% 29.49 in 10.0 mi West 12.7 mph - N/A   Mostly Cloudy
7:36 AM 14.0 °F -2.0 °F 5.0 °F 67% 29.49 in 10.0 mi West 16.1 mph 25.3 mph N/A   Scattered Clouds
7:56 AM 12.2 °F -5.8 °F 3.2 °F 67% 29.49 in 10.0 mi West 19.6 mph - N/A   Scattered Clouds
8:16 AM 14.0 °F -2.0 °F 5.0 °F 67% 29.49 in 10.0 mi West 16.1 mph 23.0 mph N/A   Scattered Clouds
8:36 AM 14.0 °F -0.2 °F 3.2 °F 62% 29.49 in 10.0 mi WSW 12.7 mph - N/A   Mostly Cloudy
8:56 AM 14.0 °F 0.5 °F 3.2 °F 62% 29.49 in 10.0 mi SW 11.5 mph - N/A   Overcast
9:16 AM 15.8 °F 2.7 °F 5.0 °F 62% 29.49 in 10.0 mi WSW 11.5 mph - N/A   Overcast
9:36 AM 15.8 °F 4.2 °F 5.0 °F 62% 29.49 in 10.0 mi West 9.2 mph 18.4 mph N/A   Overcast
9:56 AM 15.8 °F 2.7 °F 6.8 °F 68% 29.49 in 10.0 mi WSW 11.5 mph 19.6 mph N/A   Overcast
10:16 AM 15.8 °F 5.1 °F 6.8 °F 68% 29.49 in 10.0 mi West 8.1 mph 19.6 mph N/A   Overcast
10:36 AM 15.8 °F 3.4 °F 6.8 °F 68% 29.48 in 10.0 mi West 10.4 mph - N/A   Overcast
10:56 AM 15.8 °F 2.1 °F 6.8 °F 68% 29.48 in 10.0 mi WSW 12.7 mph - N/A   Overcast
11:16 AM 15.8 °F 2.7 °F 6.8 °F 68% 29.47 in 10.0 mi WSW 11.5 mph 17.3 mph N/A   Overcast
11:36 AM 15.8 °F 3.4 °F 6.8 °F 68% 29.46 in 10.0 mi West 10.4 mph 17.3 mph N/A   Overcast
11:56 AM 15.8 °F 2.1 °F 8.6 °F 73% 29.46 in 10.0 mi WSW 12.7 mph 19.6 mph N/A   Overcast
12:16 PM 15.8 °F 2.1 °F 6.8 °F 68% 29.45 in 10.0 mi WSW 12.7 mph - N/A   Mostly Cloudy
12:36 PM 15.8 °F 0.9 °F 6.8 °F 68% 29.44 in 10.0 mi WSW 15.0 mph 18.4 mph N/A   Overcast
12:56 PM 15.8 °F 1.4 °F 6.8 °F 68% 29.44 in 10.0 mi WSW 13.8 mph 17.3 mph N/A   Overcast
1:16 PM 15.8 °F 1.4 °F 6.8 °F 68% 29.43 in 10.0 mi WSW 13.8 mph 20.7 mph N/A   Mostly Cloudy
1:36 PM 15.8 °F 2.7 °F 6.8 °F 68% 29.43 in 10.0 mi WSW 11.5 mph 21.9 mph N/A   Mostly Cloudy
1:56 PM 15.8 °F 0.9 °F 6.8 °F 68% 29.42 in 10.0 mi SW 15.0 mph - N/A   Overcast
2:16 PM 15.8 °F 2.7 °F 6.8 °F 68% 29.41 in 10.0 mi WSW 11.5 mph 18.4 mph N/A   Overcast
2:36 PM 15.8 °F 3.4 °F 6.8 °F 68% 29.41 in 10.0 mi WSW 10.4 mph 16.1 mph N/A   Overcast
2:56 PM 15.8 °F 1.4 °F 6.8 °F 68% 29.40 in 10.0 mi WSW 13.8 mph 21.9 mph N/A   Overcast
3:16 PM 15.8 °F -0.2 °F 6.8 °F 68% 29.39 in 10.0 mi WSW 17.3 mph - N/A   Partly Cloudy
3:36 PM 15.8 °F 0.9 °F 6.8 °F 68% 29.39 in 10.0 mi SW 15.0 mph - N/A   Mostly Cloudy
3:56 PM 15.8 °F 0.3 °F 6.8 °F 68% 29.38 in 10.0 mi WSW 16.1 mph 21.9 mph N/A   Overcast
4:16 PM 15.8 °F -1.1 °F 6.8 °F 68% 29.37 in 10.0 mi SW 19.6 mph 24.2 mph N/A   Overcast
4:36 PM 15.8 °F -0.2 °F 5.0 °F 62% 29.37 in 10.0 mi WSW 17.3 mph 21.9 mph N/A   Mostly Cloudy
4:56 PM 15.8 °F 1.4 °F 5.0 °F 62% 29.37 in 10.0 mi WSW 13.8 mph - N/A   Overcast
5:16 PM 15.8 °F 2.1 °F 6.8 °F 68% 29.37 in 10.0 mi WSW 12.7 mph - N/A   Overcast
5:56 PM 15.8 °F 1.4 °F 5.0 °F 62% 29.36 in 10.0 mi WSW 13.8 mph 21.9 mph N/A   Overcast
6:16 PM 15.8 °F 2.1 °F 5.0 °F 62% 29.36 in 10.0 mi WSW 12.7 mph - N/A   Scattered Clouds
6:36 PM 15.8 °F -0.6 °F 6.8 °F 68% 29.35 in 10.0 mi WSW 18.4 mph 21.9 mph N/A   Mostly Cloudy
6:56 PM 15.8 °F 0.3 °F 6.8 °F 68% 29.35 in 10.0 mi WSW 16.1 mph 21.9 mph N/A   Overcast
7:16 PM 15.8 °F 0.3 °F 6.8 °F 68% 29.34 in 10.0 mi WSW 16.1 mph 23.0 mph N/A   Overcast
7:36 PM 15.8 °F 0.9 °F 6.8 °F 68% 29.34 in 10.0 mi WSW 15.0 mph 23.0 mph N/A   Mostly Cloudy
7:56 PM 15.8 °F 1.4 °F 6.8 °F 68% 29.33 in 10.0 mi WSW 13.8 mph 24.2 mph N/A   Scattered Clouds
8:16 PM 17.6 °F 3.2 °F 8.6 °F 68% 29.32 in 10.0 mi WSW 15.0 mph - N/A   Mostly Cloudy
8:36 PM 17.6 °F 4.3 °F 6.8 °F 63% 29.31 in 10.0 mi WSW 12.7 mph 21.9 mph N/A   Overcast
8:56 PM 17.6 °F 4.3 °F 6.8 °F 63% 29.31 in 10.0 mi West 12.7 mph 17.3 mph N/A   Overcast
9:16 PM 17.6 °F 2.7 °F 6.8 °F 63% 29.31 in 10.0 mi West 16.1 mph 21.9 mph N/A   Overcast
9:36 PM 17.6 °F 1.3 °F 8.6 °F 68% 29.30 in 10.0 mi WSW 19.6 mph 25.3 mph N/A   Overcast
9:56 PM 17.6 °F 2.7 °F 8.6 °F 68% 29.30 in 10.0 mi West 16.1 mph 25.3 mph N/A   Overcast
10:16 PM 17.6 °F 2.2 °F 8.6 °F 68% 29.29 in 10.0 mi West 17.3 mph 24.2 mph N/A   Overcast
10:36 PM 17.6 °F 2.7 °F 8.6 °F 68% 29.29 in 3.0 mi West 16.1 mph 24.2 mph N/A   Overcast
10:56 PM 17.6 °F 2.2 °F 10.4 °F 73% 29.28 in 3.0 mi West 17.3 mph 25.3 mph N/A   Overcast
11:16 PM 17.6 °F 1.7 °F 10.4 °F 73% 29.28 in 5.0 mi West 18.4 mph 29.9 mph N/A   Overcast
11:36 PM 17.6 °F 1.3 °F 10.4 °F 73% 29.27 in 5.0 mi West 19.6 mph 27.6 mph N/A   Overcast
11:56 PM 19.4 °F 5.0 °F 10.4 °F 68% 29.26 in 5.0 mi WSW 16.1 mph 23.0 mph N/A   Overcast